Vinton Veterans Memorial Airpark Airport
Sunday 1:35 PM
Temperature76° (76°/51°)
Dew Point45°
Relative Humidity33
%
Visibility10
mi
Pressure1025.7
mb
Wind DirectionESE
110°
Wind Speed6
mph
Precipitation Today0.00"

Last 30 Observations

Time PresWx Temp DP Feels RH% Vsby Pressure Ceiling Direction Speed 1h Precip
1:15 PM 10
mi
0.00"
12:55 PM 76° 47° 35
%
10
mi
1026.1
mb
Calm 0.00"
12:35 PM 76° 47° 36
%
10
mi
1026.4
mb
SE
140°
8
mph
0.00"
12:15 PM 76° 48° 37
%
10
mi
1026.4
mb
ESE
120°
9
mph
0.00"
11:55 AM 73° 44° 35
%
10
mi
1026.8
mb
SE
140°
5
mph
0.00"
11:35 AM 73° 44° 36
%
10
mi
1026.8
mb
S
180°
7
mph
0.00"
11:15 AM 73° 44° 35
%
10
mi
1026.8
mb
SSE
150°
7
mph
0.00"
10:55 AM 71° 47° 42
%
10
mi
1027.1
mb
S
170°
8
mph
0.00"
10:35 AM 71° 48° 44
%
10
mi
1027.1
mb
SE
140°
6
mph
0.00"
10:15 AM 69° 48° 47
%
10
mi
1027.4
mb
SSE
160°
3
mph
0.00"
9:55 AM 68° 48° 48
%
10
mi
1027.4
mb
ESE
120°
6
mph
0.00"
9:35 AM 66° 48° 53
%
10
mi
1027.4
mb
ESE
120°
6
mph
0.00"
9:15 AM 64° 46° 53
%
10
mi
1027.4
mb
ESE
120°
6
mph
0.00"
8:55 AM 62° 47° 58
%
10
mi
1027.4
mb
SE
130°
6
mph
0.00"
8:35 AM 60° 47° 63
%
10
mi
1027.4
mb
E
100°
8
mph
0.00"
8:15 AM 61° 47° 59
%
10
mi
1027.4
mb
E
100°
9
mph
0.00"
7:55 AM 60° 48° 63
%
10
mi
1027.1
mb
ESE
110°
7
mph
0.00"
7:35 AM 58° 49° 70
%
10
mi
1026.8
mb
E
90°
5
mph
0.00"
7:15 AM 56° 48° 76
%
10
mi
1026.8
mb
Calm 0.00"
6:55 AM 56° 50° 82
%
10
mi
1026.4
mb
Calm 0.00"
6:35 AM 52° 46° 81
%
10
mi
1026.1
mb
ENE
70°
3
mph
0.00"
6:15 AM 51° 46° 82
%
10
mi
1026.1
mb
Calm 0.00"
5:55 AM 51° 46° 83
%
10
mi
1025.7
mb
Calm 0.00"
5:35 AM 51° 49° 92
%
10
mi
1025.7
mb
Calm 0.00"
5:15 AM 51° 50° 97
%
10
mi
1025.4
mb
Calm 0.00"
4:55 AM 51° 48° 91
%
10
mi
1025.4
mb
Calm 0.00"
4:35 AM 51° 47° 87
%
10
mi
1025.4
mb
Calm 0.00"
4:15 AM 51° 48° 90
%
10
mi
1025.4
mb
Calm 0.00"
3:55 AM 51° 50° 97
%
10
mi
1025.4
mb
Calm 0.00"
3:35 AM 51° 50° 97
%
10
mi
1025.4
mb
Calm 0.00"